This is the latest recevied weather packets stored in our database for station/object DN9EM-1. If no packets are shown the sender has not sent any weather packets the latest 10 day(s).
| Time | Temp. | Humidity | Pressure | Rain* | Wind** | Luminosity | Snow |
|---|---|---|---|---|---|---|---|
| 1777263654 | 0° C | 88% | 1027 hPa | 0 mm | - | - | - |
| 1777263051 | 0° C | 88% | 1027.1 hPa | 0 mm | - | - | - |
| 1777262449 | 0° C | 89% | 1026.9 hPa | 0 mm | - | - | - |
| 1777261846 | 0° C | 89% | 1027 hPa | 0 mm | - | - | - |
| 1777261244 | 0° C | 89% | 1026.9 hPa | 0 mm | - | - | - |
| 1777260641 | -0.56° C | 89% | 1026.9 hPa | 0 mm | - | - | - |
| 1777260038 | -0.56° C | 89% | 1027 hPa | 0 mm | - | - | - |
| 1777259436 | -0.56° C | 88% | 1026.8 hPa | 0 mm | - | - | - |
| 1777258833 | -0.56° C | 88% | 1026.9 hPa | 0 mm | - | - | - |
| 1777258230 | 0° C | 88% | 1026.8 hPa | 0 mm | - | - | - |
| 1777257628 | 0° C | 88% | 1026.8 hPa | 0 mm | - | - | - |
| 1777257026 | 0° C | 87% | 1026.7 hPa | 0 mm | - | - | - |
| 1777256423 | 0° C | 87% | 1026.7 hPa | 0 mm | - | - | - |
| 1777255820 | 0° C | 87% | 1026.9 hPa | 0 mm | - | - | - |
| 1777255218 | 0.56° C | 86% | 1026.8 hPa | 0 mm | - | - | - |
| 1777254615 | 0.56° C | 86% | 1026.7 hPa | 0 mm | - | - | - |
| 1777254073 | 0.56° C | 85% | 1026.7 hPa | 0 mm | - | - | - |
| 1777253470 | 1.11° C | 85% | 1026.6 hPa | 0 mm | - | - | - |
| 1777252867 | 1.11° C | 85% | 1026.8 hPa | 0 mm | - | - | - |
| 1777252265 | 1.11° C | 85% | 1026.7 hPa | 0 mm | - | - | - |
| 1777251662 | 1.67° C | 86% | 1026.9 hPa | 0 mm | - | - | - |
| 1777251060 | 1.67° C | 85% | 1027 hPa | 0 mm | - | - | - |
| 1777250457 | 1.67° C | 85% | 1026.9 hPa | 0 mm | - | - | - |
| 1777249857 | 1.67° C | 85% | 1026.9 hPa | 0 mm | - | - | - |
| 1777249252 | 2.22° C | 85% | 1027 hPa | 0 mm | - | - | - |
* Rain latest hour (hover to see other rain measurements)
** Current wind speed in m/s (hover to see current wind gust speed)